| time (UTC) | temp F | wind direction | speed MPH | gust MPH | rain 1hr in | rain 24hr in | rain mn in | humidity % | barometer mb |
| 20260505163755 | 82 | 190 | 10.0 | 19.0 | 0.00 | 0.00 | 0.00 | ||
| 20260505163250 | 83 | 228 | 8.0 | 17.0 | 0.00 | 0.00 | 0.00 | ||
| 20260505162743 | 81 | 219 | 9.0 | 19.0 | 0.00 | 0.00 | 0.00 | ||
| 20260505162237 | 81 | 212 | 17.0 | 13.0 | 0.00 | 0.00 | 0.00 | ||
| 20260505161731 | 82 | 193 | 7.0 | 16.0 | 0.00 | 0.00 | 0.00 | ||
| 20260505160721 | 81 | 236 | 7.0 | 17.0 | 0.00 | 0.00 | 0.00 | ||
| 20260505160216 | 80 | 253 | 9.0 | 18.0 | 0.00 | 0.00 | 0.00 | ||
| 20260505153146 | 80 | 163 | 14.0 | 19.0 | 0.00 | 0.00 | 0.00 | ||
| 20260505152637 | 80 | 212 | 12.0 | 16.0 | 0.00 | 0.00 | 0.00 | ||
| 20260505152133 | 80 | 269 | 14.0 | 18.0 | 0.00 | 0.00 | 0.00 | ||
| 20260505151628 | 79 | 181 | 11.0 | 18.0 | 0.00 | 0.00 | 0.00 | ||
| 20260505151124 | 79 | 217 | 8.0 | 16.0 | 0.00 | 0.00 | 0.00 | ||
| 20260505150619 | 79 | 194 | 14.0 | 17.0 | 0.00 | 0.00 | 0.00 | ||
| 20260505150114 | 79 | 186 | 15.0 | 19.0 | 0.00 | 0.00 | 0.00 | ||
| 20260505140518 | 75 | 215 | 8.0 | 12.0 | 0.00 | 0.00 | 0.00 | ||
| 20260505124858 | 62 | 136 | 4.0 | 8.0 | 0.00 | 0.00 | 0.00 | ||
| 20260505124353 | 62 | 121 | 5.0 | 8.0 | 0.00 | 0.00 | 0.00 | ||
| 20260505123847 | 61 | 191 | 6.0 | 7.0 | 0.00 | 0.00 | 0.00 | ||
| 20260505123343 | 61 | 165 | 3.0 | 7.0 | 0.00 | 0.00 | 0.00 | ||
| 20260505122838 | 61 | 134 | 5.0 | 9.0 | 0.00 | 0.00 | 0.00 | ||
| 20260505122331 | 61 | 138 | 4.0 | 6.0 | 0.00 | 0.00 | 0.00 | ||
| 20260505121826 | 60 | 207 | 3.0 | 9.0 | 0.00 | 0.00 | 0.00 | ||
| 20260505121321 | 60 | 139 | 4.0 | 7.0 | 0.00 | 0.00 | 0.00 | ||
| 20260505120817 | 60 | 201 | 3.0 | 6.0 | 0.00 | 0.00 | 0.00 | ||
| 20260505120312 | 59 | 160 | 3.0 | 7.0 | 0.00 | 0.00 | 0.00 | ||
| 20260505115807 | 58 | 195 | 3.0 | 7.0 | 0.00 | 0.00 | 0.00 | ||
| 20260505115300 | 59 | 156 | 3.0 | 6.0 | 0.00 | 0.00 | 0.00 | ||
| 20260505114250 | 58 | 176 | 2.0 | 5.0 | 0.00 | 0.00 | 0.00 | ||
| 20260505113746 | 56 | 173 | 3.0 | 6.0 | 0.00 | 0.00 | 0.00 | ||
| 20260505113240 | 56 | 201 | 4.0 | 7.0 | 0.00 | 0.00 | 0.00 | ||
| 20260505112735 | 56 | 128 | 1.0 | 4.0 | 0.00 | 0.00 | 0.00 | ||
| 20260505112227 | 56 | 163 | 0.0 | 3.0 | 0.00 | 0.00 | 0.00 | ||
| 20260505111723 | 54 | 135 | 0.0 | 0.0 | 0.00 | 0.00 | 0.00 | ||
| 20260505111218 | 52 | 135 | 0.0 | 0.0 | 0.00 | 0.00 | 0.00 | ||
| 20260505110713 | 54 | 135 | 0.0 | 0.0 | 0.00 | 0.00 | 0.00 | ||
| 20260505110209 | 53 | 135 | 0.0 | 0.0 | 0.00 | 0.00 | 0.00 | ||
| 20260505102124 | 53 | 135 | 0.0 | 0.0 | 0.00 | 0.00 | 0.00 | ||
| 20260505101619 | 51 | 135 | 0.0 | 0.0 | 0.00 | 0.00 | 0.00 | ||
| 20260505101114 | 52 | 135 | 0.0 | 0.0 | 0.00 | 0.00 | 0.00 | ||
| 20260505100609 | 51 | 135 | 0.0 | 0.0 | 0.00 | 0.00 | 0.00 | ||
| 20260505100105 | 52 | 135 | 0.0 | 0.0 | 0.00 | 0.00 | 0.00 | ||
| 20260505095600 | 52 | 135 | 0.0 | 0.0 | 0.00 | 0.00 | 0.00 | ||
| 20260505095052 | 52 | 135 | 0.0 | 0.0 | 0.00 | 0.00 | 0.00 | ||
| 20260505094546 | 52 | 135 | 0.0 | 0.0 | 0.00 | 0.00 | 0.00 | ||
| 20260505094041 | 53 | 135 | 0.0 | 0.0 | 0.00 | 0.00 | 0.00 | ||
| 20260505093536 | 52 | 135 | 0.0 | 0.0 | 0.00 | 0.00 | 0.00 | ||
| 20260505093032 | 52 | 135 | 0.0 | 0.0 | 0.00 | 0.00 | 0.00 | ||
| 20260505092527 | 52 | 135 | 0.0 | 0.0 | 0.00 | 0.00 | 0.00 | ||
| 20260505092019 | 51 | 135 | 0.0 | 0.0 | 0.00 | 0.00 | 0.00 | ||
| 20260505091514 | 52 | 135 | 0.0 | 0.0 | 0.00 | 0.00 | 0.00 | ||
| 20260505091009 | 52 | 135 | 0.0 | 0.0 | 0.00 | 0.00 | 0.00 | ||
| 20260505090504 | 53 | 135 | 0.0 | 2.0 | 0.00 | 0.00 | 0.00 | ||
| 20260505085454 | 53 | 139 | 0.0 | 0.0 | 0.00 | 0.00 | 0.00 | ||
| 20260505084947 | 53 | 139 | 0.0 | 0.0 | 0.00 | 0.00 | 0.00 | ||
| 20260505084442 | 53 | 139 | 0.0 | 0.0 | 0.00 | 0.00 | 0.00 | ||
| 20260505083937 | 52 | 139 | 0.0 | 0.0 | 0.00 | 0.00 | 0.00 | ||
| 20260505083432 | 51 | 139 | 0.0 | 0.0 | 0.00 | 0.00 | 0.00 | ||
| 20260505082927 | 51 | 139 | 0.0 | 0.0 | 0.00 | 0.00 | 0.00 | ||
| 20260505082423 | 51 | 139 | 0.0 | 0.0 | 0.00 | 0.00 | 0.00 | ||
| 20260505081915 | 52 | 139 | 0.0 | 0.0 | 0.00 | 0.00 | 0.00 | ||
| 20260505081410 | 50 | 139 | 0.0 | 0.0 | 0.00 | 0.00 | 0.00 | ||
| 20260505080400 | 50 | 139 | 0.0 | 0.0 | 0.00 | 0.00 | 0.00 | ||
| 20260505075855 | 50 | 139 | 0.0 | 0.0 | 0.00 | 0.00 | 0.00 | ||
| 20260505075351 | 50 | 139 | 0.0 | 0.0 | 0.00 | 0.00 | 0.00 | ||
| 20260505074843 | 51 | 139 | 0.0 | 0.0 | 0.00 | 0.00 | 0.00 | ||
| 20260505074338 | 50 | 139 | 0.0 | 0.0 | 0.00 | 0.00 | 0.00 | ||
| 20260505073833 | 51 | 139 | 0.0 | 0.0 | 0.00 | 0.00 | 0.00 | ||
| 20260505073328 | 51 | 139 | 0.0 | 0.0 | 0.00 | 0.00 | 0.00 | ||
| 20260505072823 | 51 | 139 | 0.0 | 0.0 | 0.00 | 0.00 | 0.00 | ||
| 20260505072319 | 52 | 139 | 0.0 | 0.0 | 0.00 | 0.00 | 0.00 | ||
| 20260505071811 | 52 | 139 | 0.0 | 0.0 | 0.00 | 0.00 | 0.00 | ||
| 20260505071306 | 52 | 139 | 0.0 | 0.0 | 0.00 | 0.00 | 0.00 | ||
| 20260505070801 | 53 | 139 | 0.0 | 0.0 | 0.00 | 0.00 | 0.00 | ||
| 20260505070257 | 53 | 139 | 0.0 | 0.0 | 0.00 | 0.00 | 0.00 | ||
| 20260505065752 | 54 | 139 | 0.0 | 0.0 | 0.00 | 0.00 | 0.00 | ||
| 20260505065247 | 52 | 139 | 0.0 | 0.0 | 0.00 | 0.00 | 0.00 | ||
| 20260505064739 | 51 | 139 | 0.0 | 0.0 | 0.00 | 0.00 | 0.00 | ||
| 20260505064235 | 51 | 139 | 0.0 | 2.0 | 0.00 | 0.00 | 0.00 | ||
| 20260505063730 | 52 | 179 | 2.0 | 0.0 | 0.00 | 0.00 | 0.00 | ||
| 20260505063225 | 52 | 190 | 0.0 | 0.0 | 0.00 | 0.00 | 0.00 | ||
| 20260505062720 | 53 | 190 | 0.0 | 0.0 | 0.00 | 0.00 | 0.00 | ||
| 20260505062216 | 53 | 190 | 0.0 | 0.0 | 0.00 | 0.00 | 0.00 | ||
| 20260505061203 | 55 | 190 | 0.0 | 1.0 | 0.00 | 0.00 | 0.00 | ||
| 20260505060658 | 55 | 181 | 0.0 | 0.0 | 0.00 | 0.00 | 0.00 | ||
| 20260505060154 | 55 | 181 | 0.0 | 1.0 | 0.00 | 0.00 | 0.00 | ||
| 20260505055649 | 55 | 194 | 1.0 | 2.0 | 0.00 | 0.00 | 0.00 | ||
| 20260505055144 | 55 | 176 | 0.0 | 0.0 | 0.00 | 0.00 | 0.00 | ||
| 20260505054637 | 55 | 176 | 0.0 | 2.0 | 0.00 | 0.00 | 0.00 | ||
| 20260505054132 | 57 | 179 | 1.0 | 3.0 | 0.00 | 0.00 | 0.00 | ||
| 20260505053626 | 57 | 233 | 2.0 | 3.0 | 0.00 | 0.00 | 0.00 | ||
| 20260505053121 | 59 | 226 | 2.0 | 3.0 | 0.00 | 0.00 | 0.00 | ||
| 20260505052617 | 58 | 135 | 2.0 | 0.0 | 0.00 | 0.00 | 0.00 | ||
| 20260505052112 | 59 | 159 | 0.0 | 0.0 | 0.00 | 0.00 | 0.00 | ||
| 20260505051604 | 58 | 159 | 0.0 | 0.0 | 0.00 | 0.00 | 0.00 | ||
| 20260505051058 | 59 | 159 | 0.0 | 4.0 | 0.00 | 0.00 | 0.00 | ||
| 20260505050554 | 60 | 159 | 0.0 | 5.0 | 0.00 | 0.00 | 0.00 | ||
| 20260505041458 | 62 | 163 | 5.0 | 8.0 | 0.00 | 0.00 | 0.00 | ||
| 20260505040953 | 63 | 148 | 6.0 | 9.0 | 0.00 | 0.00 | 0.00 | ||
| 20260505040448 | 64 | 155 | 6.0 | 8.0 | 0.00 | 0.00 | 0.00 | ||
| 20260505035944 | 63 | 132 | 4.0 | 6.0 | 0.00 | 0.00 | 0.00 | ||
| 20260505035439 | 64 | 162 | 4.0 | 7.0 | 0.00 | 0.00 | 0.00 | ||
| 20260505034934 | 63 | 170 | 2.0 | 6.0 | 0.00 | 0.00 | 0.00 | ||
| 20260505034426 | 64 | 163 | 5.0 | 7.0 | 0.00 | 0.00 | 0.00 | ||
| 20260505033922 | 64 | 160 | 3.0 | 9.0 | 0.00 | 0.00 | 0.00 | ||
| 20260505033417 | 63 | 167 | 4.0 | 8.0 | 0.00 | 0.00 | 0.00 | ||
| 20260505032912 | 64 | 152 | 4.0 | 7.0 | 0.00 | 0.00 | 0.00 | ||
| 20260505032408 | 64 | 110 | 2.0 | 6.0 | 0.00 | 0.00 | 0.00 | ||
| 20260505031903 | 64 | 167 | 4.0 | 8.0 | 0.00 | 0.00 | 0.00 | ||
| 20260505030346 | 66 | 148 | 3.0 | 8.0 | 0.00 | 0.00 | 0.00 | ||
| 20260505025841 | 65 | 145 | 3.0 | 8.0 | 0.00 | 0.00 | 0.00 | ||
| 20260505025336 | 66 | 138 | 4.0 | 7.0 | 0.00 | 0.00 | 0.00 | ||
| 20260505024830 | 64 | 152 | 6.0 | 8.0 | 0.00 | 0.00 | 0.00 | ||
| 20260505024323 | 64 | 176 | 4.0 | 7.0 | 0.00 | 0.00 | 0.00 | ||
| 20260505023818 | 65 | 162 | 4.0 | 6.0 | 0.00 | 0.00 | 0.00 | ||
| 20260505023314 | 65 | 197 | 3.0 | 5.0 | 0.00 | 0.00 | 0.00 | ||
| 20260505022809 | 66 | 179 | 3.0 | 6.0 | 0.00 | 0.00 | 0.00 | ||
| 20260505022304 | 65 | 219 | 2.0 | 8.0 | 0.00 | 0.00 | 0.00 | ||
| 20260505021800 | 65 | 198 | 6.0 | 9.0 | 0.00 | 0.00 | 0.00 | ||
| 20260505021252 | 66 | 217 | 4.0 | 9.0 | 0.00 | 0.00 | 0.00 | ||
| 20260505020748 | 66 | 221 | 4.0 | 8.0 | 0.00 | 0.00 | 0.00 | ||
| 20260505020243 | 66 | 219 | 5.0 | 9.0 | 0.00 | 0.00 | 0.00 | ||
| 20260505015738 | 67 | 205 | 6.0 | 10.0 | 0.00 | 0.00 | 0.00 | ||
| 20260505015233 | 67 | 165 | 6.0 | 11.0 | 0.00 | 0.00 | 0.00 | ||
| 20260505014729 | 68 | 172 | 5.0 | 11.0 | 0.00 | 0.00 | 0.00 | ||
| 20260505014221 | 68 | 153 | 5.0 | 10.0 | 0.00 | 0.00 | 0.00 | ||
| 20260505013716 | 68 | 174 | 9.0 | 14.0 | 0.00 | 0.00 | 0.00 | ||
| 20260505013212 | 68 | 172 | 6.0 | 10.0 | 0.00 | 0.00 | 0.00 | ||
| 20260505012707 | 68 | 186 | 5.0 | 10.0 | 0.00 | 0.00 | 0.00 | ||
| 20260505012202 | 68 | 172 | 7.0 | 9.0 | 0.00 | 0.00 | 0.00 | ||
| 20260505011658 | 68 | 180 | 8.0 | 9.0 | 0.00 | 0.00 | 0.00 | ||
| 20260505011150 | 68 | 162 | 7.0 | 10.0 | 0.00 | 0.00 | 0.00 | ||
| 20260505010645 | 69 | 158 | 5.0 | 13.0 | 0.00 | 0.00 | 0.00 | ||
| 20260505010141 | 69 | 201 | 9.0 | 13.0 | 0.00 | 0.00 | 0.00 | ||
| 20260505005636 | 68 | 177 | 7.0 | 11.0 | 0.00 | 0.00 | 0.00 | ||
| 20260505005131 | 69 | 152 | 4.0 | 13.0 | 0.00 | 0.00 | 0.00 | ||
| 20260505004627 | 70 | 146 | 8.0 | 11.0 | 0.00 | 0.00 | 0.00 | ||
| 20260505004119 | 69 | 163 | 5.0 | 12.0 | 0.00 | 0.00 | 0.00 | ||
| 20260505003614 | 69 | 160 | 9.0 | 12.0 | 0.00 | 0.00 | 0.00 | ||
| 20260505003110 | 69 | 180 | 10.0 | 11.0 | 0.00 | 0.00 | 0.00 | ||
| 20260505002605 | 70 | 174 | 8.0 | 10.0 | 0.00 | 0.00 | 0.00 | ||
| 20260505002100 | 70 | 143 | 4.0 | 13.0 | 0.00 | 0.00 | 0.00 | ||
| 20260505001556 | 71 | 158 | 5.0 | 11.0 | 0.00 | 0.00 | 0.00 | ||
| 20260505001048 | 70 | 170 | 4.0 | 15.0 | 0.00 | 0.00 | 0.00 | ||
| 20260505000544 | 70 | 170 | 4.0 | 15.0 | 0.00 | 0.00 | 0.00 | ||
| 20260505000039 | 71 | 143 | 6.0 | 10.0 | 0.00 | 0.00 | 0.00 | ||
| 20260504235535 | 71 | 153 | 8.0 | 10.0 | 0.00 | 0.00 | 0.00 | ||
| 20260504235030 | 70 | 129 | 5.0 | 12.0 | 0.00 | 0.00 | 0.00 | ||
| 20260504234525 | 70 | 204 | 6.0 | 11.0 | 0.00 | 0.00 | 0.00 | ||
| 20260504234018 | 71 | 165 | 6.0 | 13.0 | 0.00 | 0.00 | 0.00 | ||
| 20260504233513 | 72 | 195 | 8.0 | 14.0 | 0.00 | 0.00 | 0.00 | ||
| 20260504233008 | 70 | 162 | 9.0 | 11.0 | 0.00 | 0.00 | 0.00 | ||
| 20260504232504 | 72 | 186 | 9.0 | 12.0 | 0.00 | 0.00 | 0.00 | ||
| 20260504231959 | 73 | 127 | 8.0 | 11.0 | 0.00 | 0.00 | 0.00 | ||
| 20260504231454 | 72 | 153 | 8.0 | 13.0 | 0.00 | 0.00 | 0.00 | ||
| 20260504230946 | 72 | 145 | 8.0 | 13.0 | 0.00 | 0.00 | 0.00 | ||
| 20260504230441 | 74 | 143 | 7.0 | 13.0 | 0.00 | 0.00 | 0.00 | ||
| 20260504225936 | 74 | 165 | 9.0 | 12.0 | 0.00 | 0.00 | 0.00 | ||
| 20260504225431 | 74 | 159 | 5.0 | 14.0 | 0.00 | 0.00 | 0.00 | ||
| 20260504224926 | 74 | 169 | 8.0 | 19.0 | 0.00 | 0.00 | 0.00 | ||
| 20260504224422 | 75 | 198 | 5.0 | 21.0 | 0.00 | 0.00 | 0.00 | ||
| 20260504223914 | 78 | 180 | 12.0 | 16.0 | 0.00 | 0.00 | 0.00 | ||
| 20260504223410 | 75 | 146 | 8.0 | 19.0 | 0.00 | 0.00 | 0.00 | ||
| 20260504222401 | 76 | 148 | 9.0 | 14.0 | 0.00 | 0.00 | 0.00 | ||
| 20260504221856 | 76 | 191 | 7.0 | 16.0 | 0.00 | 0.00 | 0.00 | ||
| 20260504221351 | 76 | 203 | 6.0 | 18.0 | 0.00 | 0.00 | 0.00 | ||
| 20260504220844 | 77 | 203 | 8.0 | 16.0 | 0.00 | 0.00 | 0.00 | ||
| 20260504215835 | 80 | 183 | 5.0 | 12.0 | 0.00 | 0.00 | 0.00 | ||
| 20260504215330 | 79 | 215 | 4.0 | 12.0 | 0.00 | 0.00 | 0.00 | ||
| 20260504214825 | 78 | 129 | 7.0 | 13.0 | 0.00 | 0.00 | 0.00 | ||
| 20260504214321 | 79 | 128 | 6.0 | 14.0 | 0.00 | 0.00 | 0.00 | ||
| 20260504213813 | 75 | 172 | 8.0 | 19.0 | 0.00 | 0.00 | 0.00 | ||
| 20260504213309 | 75 | 138 | 9.0 | 15.0 | 0.00 | 0.00 | 0.00 | ||
| 20260504212804 | 76 | 146 | 7.0 | 19.0 | 0.00 | 0.00 | 0.00 | ||
| 20260504212259 | 76 | 163 | 6.0 | 13.0 | 0.00 | 0.00 | 0.00 | ||
| 20260504211755 | 75 | 203 | 8.0 | 11.0 | 0.00 | 0.00 | 0.00 | ||
| 20260504211250 | 75 | 177 | 6.0 | 19.0 | 0.00 | 0.00 | 0.00 | ||
| 20260504210743 | 74 | 163 | 8.0 | 11.0 | 0.00 | 0.00 | 0.00 | ||
| 20260504210238 | 76 | 208 | 8.0 | 16.0 | 0.00 | 0.00 | 0.00 | ||
| 20260504205733 | 77 | 181 | 9.0 | 17.0 | 0.00 | 0.00 | 0.00 | ||
| 20260504205229 | 78 | 197 | 8.0 | 20.0 | 0.00 | 0.00 | 0.00 | ||
| 20260504204724 | 78 | 198 | 5.0 | 15.0 | 0.00 | 0.00 | 0.00 | ||
| 20260504204219 | 77 | 180 | 13.0 | 17.0 | 0.00 | 0.00 | 0.00 | ||
| 20260504203712 | 78 | 207 | 13.0 | 23.0 | 0.00 | 0.00 | 0.00 | ||
| 20260504203207 | 78 | 193 | 7.0 | 16.0 | 0.00 | 0.00 | 0.00 | ||
| 20260504202703 | 80 | 162 | 11.0 | 18.0 | 0.00 | 0.00 | 0.00 | ||
| 20260504202158 | 79 | 129 | 9.0 | 16.0 | 0.00 | 0.00 | 0.00 | ||
| 20260504201653 | 79 | 219 | 12.0 | 15.0 | 0.00 | 0.00 | 0.00 | ||
| 20260504201149 | 76 | 177 | 15.0 | 17.0 | 0.00 | 0.00 | 0.00 | ||
| 20260504200641 | 76 | 219 | 8.0 | 13.0 | 0.00 | 0.00 | 0.00 | ||
| 20260504200136 | 77 | 150 | 8.0 | 15.0 | 0.00 | 0.00 | 0.00 | ||
| 20260504195631 | 80 | 136 | 13.0 | 13.0 | 0.00 | 0.00 | 0.00 | ||
| 20260504195127 | 78 | 183 | 5.0 | 16.0 | 0.00 | 0.00 | 0.00 | ||
| 20260504194622 | 79 | 132 | 11.0 | 13.0 | 0.00 | 0.00 | 0.00 | ||
| 20260504194117 | 78 | 219 | 8.0 | 12.0 | 0.00 | 0.00 | 0.00 | ||
| 20260504193609 | 78 | 195 | 5.0 | 16.0 | 0.00 | 0.00 | 0.00 | ||
| 20260504193104 | 79 | 200 | 7.0 | 11.0 | 0.00 | 0.00 | 0.00 | ||
| 20260504192600 | 78 | 152 | 6.0 | 13.0 | 0.00 | 0.00 | 0.00 | ||
| 20260504192055 | 78 | 125 | 5.0 | 14.0 | 0.00 | 0.00 | 0.00 | ||
| 20260504191551 | 79 | 226 | 8.0 | 15.0 | 0.00 | 0.00 | 0.00 | ||
| 20260504191046 | 77 | 181 | 7.0 | 14.0 | 0.00 | 0.00 | 0.00 | ||
| 20260504190538 | 77 | 257 | 9.0 | 14.0 | 0.00 | 0.00 | 0.00 | ||
| 20260504190034 | 76 | 183 | 6.0 | 13.0 | 0.00 | 0.00 | 0.00 | ||
| 20260504185529 | 76 | 195 | 9.0 | 14.0 | 0.00 | 0.00 | 0.00 | ||
| 20260504185025 | 78 | 172 | 4.0 | 11.0 | 0.00 | 0.00 | 0.00 | ||
| 20260504184520 | 77 | 221 | 9.0 | 15.0 | 0.00 | 0.00 | 0.00 | ||
| 20260504184016 | 77 | 214 | 8.0 | 15.0 | 0.00 | 0.00 | 0.00 | ||
| 20260504183508 | 75 | 186 | 12.0 | 15.0 | 0.00 | 0.00 | 0.00 | ||
| 20260504183003 | 75 | 200 | 11.0 | 14.0 | 0.00 | 0.00 | 0.00 | ||
| 20260504182459 | 77 | 194 | 7.0 | 13.0 | 0.00 | 0.00 | 0.00 | ||
| 20260504181954 | 73 | 172 | 9.0 | 16.0 | 0.00 | 0.00 | 0.00 | ||
| 20260504181449 | 76 | 231 | 14.0 | 12.0 | 0.00 | 0.00 | 0.00 | ||
| 20260504180437 | 73 | 155 | 6.0 | 14.0 | 0.00 | 0.00 | 0.00 | ||
| 20260504175932 | 73 | 190 | 5.0 | 11.0 | 0.00 | 0.00 | 0.00 | ||
| 20260504175428 | 75 | 214 | 7.0 | 14.0 | 0.00 | 0.00 | 0.00 | ||
| 20260504174923 | 74 | 170 | 5.0 | 12.0 | 0.00 | 0.00 | 0.00 | ||
| 20260504174418 | 75 | 159 | 4.0 | 12.0 | 0.00 | 0.00 | 0.00 | ||
| 20260504173914 | 73 | 307 | 2.0 | 16.0 | 0.00 | 0.00 | 0.00 | ||
| 20260504173406 | 75 | 166 | 12.0 | 12.0 | 0.00 | 0.00 | 0.00 | ||
| 20260504172901 | 74 | 197 | 7.0 | 15.0 | 0.00 | 0.00 | 0.00 | ||
| 20260504171852 | 73 | 211 | 6.0 | 12.0 | 0.00 | 0.00 | 0.00 | ||
| 20260504171348 | 75 | 139 | 9.0 | 12.0 | 0.00 | 0.00 | 0.00 | ||
| 20260504170843 | 73 | 142 | 8.0 | 13.0 | 0.00 | 0.00 | 0.00 | ||
| 20260504170336 | 73 | 218 | 7.0 | 13.0 | 0.00 | 0.00 | 0.00 |